When you browse on this site, cookies collect data to enhance your experience and personalize the content and advertising you see.
Visit our Privacy Policy to learn more. By continuing to use the site, you agree to this use of cookies and data.
  • In Denmark
  • List of Countries
  • For 7 days
  • Water Temperature
  • Satellite Maps
  • Weather Map
  • Weather Widgets
  • user-avatar
    Login

    Hourly Weather Bartoszow

    Today, 23 July, Tuesday

    Time Temperature Precipitation Wind Pressure Humidity
    00:00 +20°C° 0.2 mm 1 mps 755 mmHg 91%
    01:00 +19°C° 0.2 mm 1 mps 755 mmHg 92%
    02:00 +20°C° 0 mm 1 mps 755 mmHg 91%
    03:00 +20°C° 0 mm 1 mps 755 mmHg 90%
    04:00 +20°C° 0 mm 1 mps 755 mmHg 89%
    05:00 +20°C° 0 mm 2 mps 755 mmHg 85%
    06:00 +21°C° 0 mm 3 mps 755 mmHg 81%
    07:00 +21°C° 0 mm 4 mps 755 mmHg 77%
    08:00 +23°C° 0 mm 4 mps 755 mmHg 73%
    09:00 +25°C° 0 mm 5 mps 755 mmHg 68%
    10:00 +26°C° 0 mm 5 mps 755 mmHg 63%
    11:00 +27°C° 0 mm 5 mps 755 mmHg 60%
    12:00 +28°C° 0 mm 5 mps 754 mmHg 58%
    13:00 +29°C° 0 mm 5 mps 754 mmHg 55%
    14:00 +29°C° 0 mm 4 mps 754 mmHg 55%
    15:00 +29°C° 0 mm 4 mps 754 mmHg 55%
    16:00 +29°C° 0 mm 3 mps 754 mmHg 55%
    17:00 +28°C° 0 mm 3 mps 754 mmHg 59%
    18:00 +27°C° 0 mm 2 mps 754 mmHg 64%
    19:00 +26°C° 0 mm 2 mps 753 mmHg 68%
    20:00 +25°C° 0 mm 1 mps 754 mmHg 73%
    21:00 +23°C° 0 mm 1 mps 754 mmHg 79%
    22:00 +20°C° 0 mm 0 mps 754 mmHg 84%
    23:00 +19°C° 0 mm 0 mps 754 mmHg 86%

    Tomorrow, 24 July, Wednesday

    Time Temperature Precipitation Wind Pressure Humidity
    00:00 +21°C° 0 mm 1 mps 754 mmHg 87%
    01:00 +21°C° 0 mm 1 mps 754 mmHg 89%
    02:00 +20°C° 0 mm 1 mps 754 mmHg 90%
    03:00 +20°C° 0 mm 1 mps 753 mmHg 91%
    04:00 +19°C° 0 mm 1 mps 753 mmHg 92%
    05:00 +21°C° 0 mm 1 mps 753 mmHg 87%
    06:00 +22°C° 0 mm 1 mps 753 mmHg 82%
    07:00 +23°C° 0 mm 1 mps 753 mmHg 77%
    08:00 +25°C° 0 mm 1 mps 753 mmHg 70%
    09:00 +26°C° 0 mm 1 mps 753 mmHg 63%
    10:00 +28°C° 0 mm 2 mps 753 mmHg 57%
    11:00 +28°C° 0 mm 2 mps 753 mmHg 53%
    12:00 +29°C° 0 mm 2 mps 753 mmHg 49%
    13:00 +30°C° 0 mm 2 mps 753 mmHg 45%
    14:00 +31°C° 0 mm 2 mps 753 mmHg 45%
    15:00 +31°C° 0 mm 2 mps 753 mmHg 44%
    16:00 +31°C° 0 mm 2 mps 753 mmHg 43%
    17:00 +30°C° 0 mm 2 mps 752 mmHg 51%
    18:00 +28°C° 0 mm 2 mps 752 mmHg 58%
    19:00 +26°C° 0 mm 3 mps 752 mmHg 66%
    20:00 +25°C° 0 mm 2 mps 753 mmHg 70%
    21:00 +24°C° 0 mm 2 mps 753 mmHg 74%
    22:00 +22°C° 0 mm 1 mps 753 mmHg 78%
    23:00 +22°C° 0 mm 1 mps 753 mmHg 80%

    Day after tomorrow, 25 July, Thursday

    Time Temperature Precipitation Wind Pressure Humidity
    00:00 +22°C° 0 mm 1 mps 753 mmHg 83%
    01:00 +19°C° 0 mm 0 mps 753 mmHg 85%
    02:00 +19°C° 0 mm 0 mps 753 mmHg 86%
    03:00 +18°C° 0 mm 0 mps 753 mmHg 86%
    04:00 +18°C° 0 mm 0 mps 753 mmHg 87%
    05:00 +22°C° 0 mm 1 mps 753 mmHg 82%
    06:00 +23°C° 0 mm 1 mps 753 mmHg 77%
    07:00 +25°C° 0 mm 1 mps 753 mmHg 72%
    08:00 +26°C° 0 mm 1 mps 753 mmHg 66%
    09:00 +28°C° 0 mm 1 mps 753 mmHg 60%
    10:00 +29°C° 0 mm 1 mps 753 mmHg 54%
    11:00 +30°C° 0 mm 1 mps 753 mmHg 50%
    12:00 +31°C° 0 mm 1 mps 753 mmHg 46%
    13:00 +32°C° 0 mm 1 mps 753 mmHg 42%
    14:00 +32°C° 0 mm 1 mps 752 mmHg 41%
    15:00 +32°C° 0 mm 1 mps 752 mmHg 41%
    16:00 +32°C° 0 mm 1 mps 752 mmHg 40%
    17:00 +31°C° 0 mm 2 mps 752 mmHg 46%
    18:00 +29°C° 0 mm 2 mps 752 mmHg 53%
    19:00 +28°C° 0 mm 2 mps 751 mmHg 59%
    20:00 +26°C° 0 mm 2 mps 752 mmHg 63%
    21:00 +25°C° 0 mm 2 mps 752 mmHg 68%
    22:00 +23°C° 0 mm 2 mps 752 mmHg 72%
    23:00 +23°C° 0 mm 1 mps 752 mmHg 75%

    26 July, Friday

    Time Temperature Precipitation Wind Pressure Humidity
    00:00 +22°C° 0 mm 1 mps 752 mmHg 79%
    01:00 +21°C° 0 mm 1 mps 752 mmHg 82%
    02:00 +21°C° 0 mm 1 mps 752 mmHg 84%
    03:00 +20°C° 0 mm 1 mps 751 mmHg 87%
    04:00 +19°C° 0 mm 1 mps 751 mmHg 89%
    05:00 +19°C° 0 mm 2 mps 751 mmHg 82%
    06:00 +20°C° 0 mm 2 mps 751 mmHg 75%
    07:00 +21°C° 0 mm 2 mps 751 mmHg 68%
    08:00 +24°C° 0 mm 3 mps 751 mmHg 61%
    09:00 +25°C° 0 mm 3 mps 751 mmHg 54%
    10:00 +26°C° 0 mm 4 mps 751 mmHg 47%
    11:00 +27°C° 0 mm 4 mps 751 mmHg 47%
    12:00 +27°C° 0 mm 4 mps 751 mmHg 46%
    13:00 +28°C° 0 mm 3 mps 750 mmHg 46%
    14:00 +28°C° 0 mm 4 mps 750 mmHg 46%
    15:00 +28°C° 0 mm 4 mps 750 mmHg 46%
    16:00 +28°C° 0 mm 4 mps 749 mmHg 47%
    17:00 +27°C° 0 mm 3 mps 749 mmHg 52%
    18:00 +26°C° 0 mm 3 mps 749 mmHg 57%
    19:00 +25°C° 0 mm 3 mps 749 mmHg 63%
    20:00 +22°C° 0 mm 3 mps 749 mmHg 66%
    21:00 +21°C° 0 mm 3 mps 749 mmHg 70%
    22:00 +19°C° 0 mm 2 mps 750 mmHg 74%
    23:00 +19°C° 0 mm 2 mps 750 mmHg 77%

    27 July, Saturday

    Time Temperature Precipitation Wind Pressure Humidity
    00:00 +18°C° 0 mm 2 mps 749 mmHg 79%
    01:00 +18°C° 0 mm 1 mps 749 mmHg 82%
    02:00 +18°C° 0 mm 1 mps 749 mmHg 85%
    03:00 +18°C° 0 mm 1 mps 749 mmHg 89%
    04:00 +16°C° 0 mm 1 mps 749 mmHg 92%
    05:00 +19°C° 0 mm 1 mps 749 mmHg 88%
    06:00 +19°C° 0 mm 2 mps 749 mmHg 84%
    07:00 +20°C° 0 mm 2 mps 749 mmHg 80%
    08:00 +22°C° 0.1 mm 3 mps 749 mmHg 74%
    09:00 +24°C° 0.1 mm 3 mps 749 mmHg 68%
    10:00 +26°C° 0.1 mm 3 mps 749 mmHg 63%
    11:00 +26°C° 0.3 mm 4 mps 748 mmHg 61%
    12:00 +27°C° 0.3 mm 4 mps 748 mmHg 60%
    13:00 +27°C° 0.3 mm 4 mps 748 mmHg 58%
    14:00 +27°C° 0.3 mm 4 mps 748 mmHg 57%
    15:00 +28°C° 0.3 mm 4 mps 747 mmHg 55%
    16:00 +28°C° 0.3 mm 5 mps 747 mmHg 54%
    17:00 +27°C° 0.1 mm 4 mps 747 mmHg 58%
    18:00 +26°C° 0.1 mm 4 mps 747 mmHg 62%
    19:00 +25°C° 0.1 mm 3 mps 747 mmHg 65%
    20:00 +24°C° 0 mm 3 mps 747 mmHg 70%
    21:00 +21°C° 0 mm 3 mps 747 mmHg 74%
    22:00 +20°C° 0 mm 3 mps 747 mmHg 78%
    23:00 +19°C° 0 mm 2 mps 747 mmHg 81%

    28 July, Sunday

    Time Temperature Precipitation Wind Pressure Humidity
    00:00 +19°C° 0 mm 2 mps 747 mmHg 84%
    01:00 +18°C° 0 mm 2 mps 747 mmHg 88%
    02:00 +17°C° 0 mm 2 mps 747 mmHg 90%
    03:00 +17°C° 0 mm 2 mps 747 mmHg 92%
    04:00 +18°C° 0 mm 1 mps 747 mmHg 94%
    05:00 +18°C° 0 mm 2 mps 747 mmHg 89%
    06:00 +19°C° 0 mm 2 mps 747 mmHg 84%
    07:00 +21°C° 0 mm 3 mps 747 mmHg 79%
    08:00 +22°C° 0 mm 3 mps 747 mmHg 71%
    09:00 +25°C° 0 mm 4 mps 747 mmHg 63%
    10:00 +27°C° 0 mm 4 mps 747 mmHg 55%
    11:00 +28°C° 0 mm 4 mps 747 mmHg 51%
    12:00 +29°C° 0 mm 4 mps 746 mmHg 47%
    13:00 +30°C° 0 mm 4 mps 746 mmHg 43%
    14:00 +29°C° 0.1 mm 5 mps 746 mmHg 47%
    15:00 +29°C° 0.1 mm 5 mps 746 mmHg 51%
    16:00 +28°C° 0.1 mm 5 mps 746 mmHg 55%
    17:00 +27°C° 0.7 mm 4 mps 746 mmHg 61%
    18:00 +26°C° 0.7 mm 4 mps 746 mmHg 68%
    19:00 +24°C° 0.7 mm 3 mps 746 mmHg 74%
    20:00 +22°C° 0.3 mm 3 mps 746 mmHg 78%
    21:00 +21°C° 0.3 mm 2 mps 746 mmHg 83%
    22:00 +20°C° 0.3 mm 2 mps 746 mmHg 87%
    23:00 +21°C° 0.1 mm 1 mps 746 mmHg 88%
    Show more